IW9GDC-13 Weather Reports


Display with metric or nautical units.
time (UTC)temp
F
wind
direction
speed
MPH
gust
MPH
rain 1hr
in
rain 24hr
in
rain mn
in
humidity
%
barometer
mb
20260507202516 66 203 7.0 14.0 0.00 0.00 0.00 71 1010.9
20260507202016 66 203 6.0 12.0 0.00 0.00 0.00 71 1010.9
20260507201516 66 203 9.0 15.0 0.00 0.00 0.00 71 1010.8
20260507201016 66 203 8.0 13.0 0.00 0.00 0.00 71 1011.0
20260507200516 66 203 9.0 16.0 0.00 0.00 0.00 70 1011.1
20260507200016 66 203 9.0 16.0 0.00 0.00 0.00 70 1011.1
20260507195516 66 203 10.0 17.0 0.00 0.00 0.00 70 1011.0
20260507195018 66 203 8.0 16.0 0.00 0.00 0.00 69 1011.0
20260507194518 67 180 7.0 11.0 0.00 0.00 0.00 69 1010.7
20260507194018 67 203 8.0 12.0 0.00 0.00 0.00 69 1010.7
20260507193518 67 180 7.0 14.0 0.00 0.00 0.00 68 1010.8
20260507193058 67 158 6.0 12.0 0.00 0.00 0.00 68 1010.7
20260507192538 67 180 7.0 15.0 0.00 0.00 0.00 68 1010.6
20260507192018 67 180 9.0 16.0 0.00 0.00 0.00 67 1010.5
20260507191518 67 225 8.0 17.0 0.00 0.00 0.00 67 1010.5
20260507191018 67 203 10.0 17.0 0.00 0.00 0.00 67 1010.5
20260507190518 67 203 11.0 19.0 0.00 0.00 0.00 68 1010.5
20260507190018 67 203 8.0 14.0 0.00 0.00 0.00 67 1010.4
20260507185518 67 203 9.0 16.0 0.00 0.00 0.00 67 1010.3
20260507185018 67 203 10.0 18.0 0.00 0.00 0.00 67 1010.3
20260507184518 67 180 8.0 14.0 0.00 0.00 0.00 67 1010.0
20260507184058 67 203 10.0 17.0 0.00 0.00 0.00 67 1009.9
20260507183518 67 180 10.0 19.0 0.00 0.00 0.00 67 1009.9
20260507183018 67 158 10.0 17.0 0.00 0.00 0.00 66 1009.8
20260507182518 67 203 8.0 16.0 0.00 0.00 0.00 65 1010.0
20260507182018 67 158 11.0 20.0 0.00 0.00 0.00 65 1009.9
20260507181517 67 180 13.0 23.0 0.00 0.00 0.00 64 1010.2
20260507181017 68 203 16.0 24.0 0.00 0.00 0.00 64 1010.3
20260507180518 67 180 13.0 24.0 0.00 0.00 0.00 65 1010.4
20260507180017 67 180 11.0 20.0 0.00 0.00 0.00 65 1010.1
20260507175517 67 180 14.0 23.0 0.00 0.00 0.00 65 1010.1
20260507175017 67 180 13.0 20.0 0.00 0.00 0.00 65 1010.1
20260507174518 67 180 12.0 22.0 0.00 0.00 0.00 66 1010.2
20260507174017 67 158 12.0 18.0 0.00 0.00 0.00 66 1010.2
20260507173537 67 180 13.0 21.0 0.00 0.00 0.00 66 1010.3
20260507173018 67 180 13.0 23.0 0.00 0.00 0.00 66 1010.3
20260507172538 67 180 15.0 25.0 0.00 0.00 0.00 66 1010.2
20260507172017 67 180 17.0 29.0 0.00 0.00 0.00 66 1010.3
20260507171517 67 180 16.0 29.0 0.00 0.00 0.00 66 1010.5
20260507171018 67 180 15.0 32.0 0.00 0.00 0.00 66 1010.3
20260507170518 68 158 13.0 25.0 0.00 0.00 0.00 65 1010.3
20260507170017 68 158 17.0 29.0 0.00 0.00 0.00 65 1010.3
20260507165538 68 158 14.0 24.0 0.00 0.00 0.00 65 1010.0
20260507165018 68 158 14.0 29.0 0.00 0.00 0.00 65 1010.1
20260507164537 68 180 14.0 27.0 0.00 0.00 0.00 65 1010.0
20260507164017 68 158 15.0 24.0 0.00 0.00 0.00 64 1010.1
20260507163517 68 158 13.0 26.0 0.00 0.00 0.00 64 1010.2
20260507163017 68 158 15.0 25.0 0.00 0.00 0.00 64 1010.2
20260507162517 68 158 12.0 19.0 0.00 0.00 0.00 64 1010.3
20260507162017 68 158 14.0 29.0 0.00 0.00 0.00 64 1010.3
20260507161517 68 158 15.0 26.0 0.00 0.00 0.00 64 1010.2
20260507161017 68 158 13.0 23.0 0.00 0.00 0.00 65 1010.2
20260507160517 68 158 12.0 21.0 0.00 0.00 0.00 65 1010.0
20260507160017 68 158 15.0 25.0 0.00 0.00 0.00 64 1010.1
20260507155517 69 135 12.0 22.0 0.00 0.00 0.00 64 1010.1
20260507155058 69 158 12.0 23.0 0.00 0.00 0.00 63 1010.2
20260507154537 69 135 12.0 23.0 0.00 0.00 0.00 62 1010.0
20260507154017 69 158 12.0 26.0 0.00 0.00 0.00 62 1010.2
20260507153517 69 158 11.0 21.0 0.00 0.00 0.00 62 1010.2
20260507153017 69 135 11.0 21.0 0.00 0.00 0.00 62 1010.2
20260507152537 69 135 11.0 20.0 0.00 0.00 0.00 61 1010.2
20260507152017 70 135 11.0 20.0 0.00 0.00 0.00 61 1010.4
20260507151517 70 158 11.0 19.0 0.00 0.00 0.00 61 1010.2
20260507151017 70 135 12.0 24.0 0.00 0.00 0.00 61 1010.2
20260507150517 69 135 13.0 26.0 0.00 0.00 0.00 61 1010.1
20260507150017 70 135 12.0 22.0 0.00 0.00 0.00 61 1009.9
20260507145537 70 158 15.0 25.0 0.00 0.00 0.00 60 1009.9
20260507145017 69 135 12.0 23.0 0.00 0.00 0.00 60 1010.1
20260507144517 69 135 14.0 24.0 0.00 0.00 0.00 60 1010.1
20260507144017 70 135 13.0 29.0 0.00 0.00 0.00 59 1010.1
20260507143517 70 158 14.0 27.0 0.00 0.00 0.00 59 1010.2
20260507143017 70 135 13.0 22.0 0.00 0.00 0.00 59 1010.3
20260507142517 70 135 14.0 25.0 0.00 0.00 0.00 58 1010.6
20260507142017 70 135 12.0 25.0 0.00 0.00 0.00 58 1010.4
20260507141517 70 135 12.0 22.0 0.00 0.00 0.00 58 1010.6
20260507141017 70 135 10.0 19.0 0.00 0.00 0.00 57 1010.7
20260507140537 70 135 12.0 23.0 0.00 0.00 0.00 57 1010.8
20260507140037 71 135 11.0 21.0 0.00 0.00 0.00 56 1010.6
20260507135534 71 135 12.0 22.0 0.00 0.00 0.00 55 1010.7
20260507135017 71 135 12.0 25.0 0.00 0.00 0.00 55 1010.8
20260507134517 71 135 14.0 23.0 0.00 0.00 0.00 54 1010.7
20260507134017 71 113 12.0 22.0 0.00 0.00 0.00 54 1010.8
20260507133517 72 135 10.0 21.0 0.00 0.00 0.00 54 1010.8
20260507133017 72 135 17.0 26.0 0.00 0.00 0.00 52 1010.7
20260507132517 71 135 13.0 24.0 0.00 0.00 0.00 54 1011.0
20260507132017 72 135 12.0 21.0 0.00 0.00 0.00 53 1011.0
20260507131517 72 135 12.0 24.0 0.00 0.00 0.00 52 1011.2
20260507131017 72 135 16.0 25.0 0.00 0.00 0.00 51 1011.2
20260507130537 72 135 14.0 22.0 0.00 0.00 0.00 51 1011.1
20260507130017 72 135 13.0 25.0 0.00 0.00 0.00 52 1011.1
20260507125517 72 135 17.0 27.0 0.00 0.00 0.00 50 1011.1
20260507125017 72 135 13.0 23.0 0.00 0.00 0.00 52 1011.3
20260507124517 73 135 15.0 25.0 0.00 0.00 0.00 48 1011.4
20260507124017 73 135 15.0 24.0 0.00 0.00 0.00 48 1011.2
20260507123517 73 135 13.0 25.0 0.00 0.00 0.00 49 1011.2
20260507123017 73 135 12.0 21.0 0.00 0.00 0.00 48 1011.2
20260507122517 73 135 14.0 24.0 0.00 0.00 0.00 46 1011.4
20260507122017 73 135 14.0 21.0 0.00 0.00 0.00 47 1011.3
20260507121517 74 135 17.0 31.0 0.00 0.00 0.00 45 1011.3
20260507121017 73 135 15.0 27.0 0.00 0.00 0.00 45 1011.2
20260507120517 73 135 13.0 25.0 0.00 0.00 0.00 46 1011.2
20260507120017 73 135 15.0 26.0 0.00 0.00 0.00 45 1011.2
20260507115537 73 135 17.0 25.0 0.00 0.00 0.00 44 1011.1
20260507115057 74 135 16.0 28.0 0.00 0.00 0.00 42 1011.6
20260507114517 74 135 15.0 28.0 0.00 0.00 0.00 42 1011.5
20260507114017 73 113 16.0 25.0 0.00 0.00 0.00 43 1011.5
20260507113537 74 135 13.0 25.0 0.00 0.00 0.00 43 1011.5
20260507113017 74 135 10.0 18.0 0.00 0.00 0.00 46 1011.5
20260507112537 74 135 10.0 20.0 0.00 0.00 0.00 44 1011.4
20260507112016 74 158 15.0 23.0 0.00 0.00 0.00 42 1011.7
20260507111517 74 180 15.0 28.0 0.00 0.00 0.00 41 1011.6
20260507111037 74 158 13.0 22.0 0.00 0.00 0.00 40 1011.6
20260507110517 74 180 16.0 26.0 0.00 0.00 0.00 39 1011.7
20260507110017 74 180 17.0 27.0 0.00 0.00 0.00 36 1011.5
20260507105537 74 158 13.0 23.0 0.00 0.00 0.00 36 1011.5
20260507105017 74 180 14.0 30.0 0.00 0.00 0.00 37 1011.4
20260507104516 73 180 15.0 25.0 0.00 0.00 0.00 38 1011.6
20260507104037 73 180 17.0 27.0 0.00 0.00 0.00 38 1011.7
20260507103517 73 180 15.0 28.0 0.00 0.00 0.00 37 1011.8
20260507103017 73 180 13.0 27.0 0.00 0.00 0.00 37 1011.5
20260507102516 73 158 12.0 28.0 0.00 0.00 0.00 36 1011.6
20260507102016 74 135 13.0 22.0 0.00 0.00 0.00 36 1011.7
20260507101517 74 158 16.0 35.0 0.00 0.00 0.00 34 1011.6
20260507101017 74 135 13.0 35.0 0.00 0.00 0.00 36 1011.9
20260507100516 74 158 10.0 17.0 0.00 0.00 0.00 37 1012.0
20260507100016 74 158 14.0 24.0 0.00 0.00 0.00 36 1012.1
20260507095537 74 158 14.0 22.0 0.00 0.00 0.00 35 1012.1
20260507095016 75 158 16.0 23.0 0.00 0.00 0.00 35 1012.1
20260507094517 74 180 15.0 32.0 0.00 0.00 0.00 34 1012.1
20260507094016 74 135 15.0 25.0 0.00 0.00 0.00 37 1012.1
20260507093536 74 135 16.0 26.0 0.00 0.00 0.00 35 1012.1
20260507093037 73 158 16.0 29.0 0.00 0.00 0.00 38 1012.0
20260507092537 74 180 16.0 33.0 0.00 0.00 0.00 34 1012.0
20260507092016 74 180 19.0 33.0 0.00 0.00 0.00 35 1012.1
20260507091537 73 180 14.0 27.0 0.00 0.00 0.00 36 1012.0
20260507091036 73 180 15.0 26.0 0.00 0.00 0.00 39 1012.0
20260507090516 73 180 13.0 21.0 0.00 0.00 0.00 39 1012.1
20260507090016 73 158 13.0 27.0 0.00 0.00 0.00 41 1012.0
20260507085516 72 180 13.0 28.0 0.00 0.00 0.00 41 1012.3
20260507085016 72 180 11.0 22.0 0.00 0.00 0.00 42 1012.2
20260507084537 72 158 13.0 20.0 0.00 0.00 0.00 43 1012.3
20260507084036 72 180 15.0 27.0 0.00 0.00 0.00 40 1012.4
20260507083536 71 180 14.0 23.0 0.00 0.00 0.00 41 1012.4
20260507083016 71 180 11.0 20.0 0.00 0.00 0.00 43 1012.3
20260507082516 71 180 13.0 23.0 0.00 0.00 0.00 43 1012.4
20260507082016 71 180 11.0 21.0 0.00 0.00 0.00 43 1012.3
20260507081516 71 180 12.0 20.0 0.00 0.00 0.00 41 1012.4
20260507081036 71 180 10.0 19.0 0.00 0.00 0.00 45 1012.3
20260507080536 71 158 11.0 21.0 0.00 0.00 0.00 46 1012.5
20260507080016 71 180 8.0 14.0 0.00 0.00 0.00 46 1012.5
20260507075516 70 180 11.0 19.0 0.00 0.00 0.00 47 1012.6
20260507075016 71 180 9.0 15.0 0.00 0.00 0.00 45 1012.8
20260507074516 71 180 10.0 15.0 0.00 0.00 0.00 44 1012.8
20260507074036 71 135 8.0 18.0 0.00 0.00 0.00 44 1012.8
20260507073516 71 135 8.0 14.0 0.00 0.00 0.00 43 1013.0
20260507073016 71 158 6.0 12.0 0.00 0.00 0.00 44 1013.1
20260507072516 71 158 6.0 16.0 0.00 0.00 0.00 43 1013.2
20260507072016 70 180 7.0 13.0 0.00 0.00 0.00 44 1013.0
20260507071516 70 180 9.0 17.0 0.00 0.00 0.00 44 1013.1
20260507071036 70 180 10.0 17.0 0.00 0.00 0.00 44 1013.1
20260507070516 70 180 10.0 19.0 0.00 0.00 0.00 45 1013.2
20260507070016 70 180 9.0 17.0 0.00 0.00 0.00 45 1013.3
20260507065516 70 158 7.0 18.0 0.00 0.00 0.00 44 1013.4
20260507065016 70 158 6.0 12.0 0.00 0.00 0.00 44 1013.4
20260507064516 69 158 9.0 17.0 0.00 0.00 0.00 42 1013.7
20260507064016 69 158 11.0 19.0 0.00 0.00 0.00 43 1013.8
20260507063516 69 180 6.0 11.0 0.00 0.00 0.00 44 1013.8
20260507063016 68 180 7.0 13.0 0.00 0.00 0.00 44 1013.7
20260507062516 68 158 9.0 17.0 0.00 0.00 0.00 44 1013.8
20260507062016 68 180 6.0 16.0 0.00 0.00 0.00 46 1013.8
20260507061516 68 203 6.0 11.0 0.00 0.00 0.00 46 1013.8
20260507061018 68 180 7.0 13.0 0.00 0.00 0.00 45 1013.9
20260507060518 67 180 7.0 13.0 0.00 0.00 0.00 45 1013.8
20260507060038 67 203 8.0 13.0 0.00 0.00 0.00 47 1013.7
20260507055518 67 203 9.0 15.0 0.00 0.00 0.00 49 1013.7
20260507055018 67 203 9.0 16.0 0.00 0.00 0.00 48 1013.7
20260507054518 67 203 7.0 13.0 0.00 0.00 0.00 50 1013.8
20260507054018 67 225 9.0 15.0 0.00 0.00 0.00 50 1013.8
20260507053538 67 225 6.0 12.0 0.00 0.00 0.00 51 1013.8
20260507053018 66 225 8.0 14.0 0.00 0.00 0.00 52 1013.8
20260507052518 66 225 7.0 11.0 0.00 0.00 0.00 53 1013.9
20260507052038 66 225 5.0 13.0 0.00 0.00 0.00 55 1013.8
20260507051538 66 225 8.0 16.0 0.00 0.00 0.00 54 1013.9
20260507051018 66 225 8.0 13.0 0.00 0.00 0.00 58 1013.9
20260507050517 66 225 10.0 16.0 0.00 0.00 0.00 56 1013.9
20260507050018 65 225 8.0 15.0 0.00 0.00 0.00 59 1013.8
20260507045518 65 225 10.0 15.0 0.00 0.00 0.00 60 1013.7
20260507045018 65 203 9.0 14.0 0.00 0.00 0.00 60 1014.0
20260507044517 65 203 9.0 18.0 0.00 0.00 0.00 59 1014.1
20260507044019 66 225 7.0 13.0 0.00 0.00 0.00 58 1014.2
20260507043518 66 203 8.0 15.0 0.00 0.00 0.00 58 1014.1
20260507043017 66 180 4.0 10.0 0.00 0.00 0.00 56 1014.2
20260507042518 66 158 7.0 15.0 0.00 0.00 0.00 54 1014.1
20260507042017 66 180 8.0 13.0 0.00 0.00 0.00 54 1014.2
20260507041518 66 203 7.0 13.0 0.00 0.00 0.00 53 1014.2
20260507041018 66 180 6.0 12.0 0.00 0.00 0.00 53 1014.3
20260507040517 66 180 6.0 13.0 0.00 0.00 0.00 53 1014.2
20260507040018 66 180 6.0 12.0 0.00 0.00 0.00 53 1014.3
20260507035517 66 158 4.0 9.0 0.00 0.00 0.00 53 1014.1
20260507035038 66 180 4.0 7.0 0.00 0.00 0.00 53 1014.1
20260507034538 66 180 3.0 7.0 0.00 0.00 0.00 53 1014.0
20260507034038 66 203 6.0 11.0 0.00 0.00 0.00 53 1014.2
20260507033517 66 203 4.0 8.0 0.00 0.00 0.00 52 1014.0
20260507033017 66 203 5.0 9.0 0.00 0.00 0.00 53 1013.9
20260507032518 65 203 3.0 6.0 0.00 0.00 0.00 54 1013.9
20260507032018 65 203 3.0 6.0 0.00 0.00 0.00 55 1013.9
20260507031557 65 225 3.0 5.0 0.00 0.00 0.00 55 1013.9
20260507031017 65 225 4.0 9.0 0.00 0.00 0.00 57 1014.0
20260507030518 65 203 2.0 7.0 0.00 0.00 0.00 58 1013.8
20260507030017 65 225 6.0 10.0 0.00 0.00 0.00 58 1013.9
20260507025517 65 225 5.0 9.0 0.00 0.00 0.00 59 1013.8
20260507025017 65 225 7.0 12.0 0.00 0.00 0.00 61 1013.8
20260507024517 64 225 6.0 12.0 0.00 0.00 0.00 64 1013.9
20260507024017 64 225 5.0 9.0 0.00 0.00 0.00 66 1013.7
20260507023517 64 248 5.0 9.0 0.00 0.00 0.00 69 1013.7
20260507023017 63 225 5.0 10.0 0.00 0.00 0.00 74 1014.0
20260507022537 63 203 4.0 7.0 0.00 0.00 0.00 77 1013.8
20260507022017 63 225 5.0 7.0 0.00 0.00 0.00 79 1013.8
20260507021517 63 225 9.0 13.0 0.00 0.00 0.00 81 1014.0
20260507021017 62 225 8.0 13.0 0.00 0.00 0.00 82 1014.2
20260507020517 62 225 6.0 11.0 0.00 0.00 0.00 83 1014.2
20260507020018 63 225 8.0 14.0 0.00 0.00 0.00 83 1014.3
20260507015517 63 203 6.0 12.0 0.00 0.00 0.00 81 1014.1
20260507015017 62 203 6.0 11.0 0.00 0.00 0.00 82 1013.9
20260507014517 62 203 5.0 13.0 0.00 0.00 0.00 83 1014.1
20260507014017 62 180 4.0 7.0 0.00 0.00 0.00 83 1014.1
20260507013517 62 158 3.0 5.0 0.00 0.00 0.00 82 1014.2
20260507013017 63 180 3.0 4.0 0.00 0.00 0.00 82 1014.5
20260507012517 63 158 3.0 5.0 0.00 0.00 0.00 82 1014.5
20260507012037 63 158 4.0 7.0 0.00 0.00 0.00 82 1014.5
20260507011517 63 180 2.0 4.0 0.00 0.00 0.00 80 1014.4
20260507011017 63 158 2.0 5.0 0.00 0.00 0.00 79 1014.5
20260507010517 63 158 1.0 3.0 0.00 0.00 0.00 79 1014.6
20260507010017 63 180 2.0 4.0 0.00 0.00 0.00 79 1014.7
20260507005517 63 180 2.0 6.0 0.00 0.00 0.00 78 1014.6
20260507005017 63 180 2.0 4.0 0.00 0.00 0.00 78 1014.6
20260507004537 63 158 2.0 3.0 0.00 0.00 0.00 78 1014.6
20260507004017 63 180 1.0 3.0 0.00 0.00 0.00 78 1014.7
20260507003517 63 0.0 2.0 0.00 0.00 0.00 78 1014.7
20260507003017 63 158 1.0 3.0 0.00 0.00 0.00 78 1014.7
20260507002517 63 203 1.0 2.0 0.00 0.00 0.00 78 1014.8
20260507002017 63 180 1.0 3.0 0.00 0.00 0.00 78 1014.8
20260507001517 63 180 2.0 6.0 0.00 0.00 0.00 78 1014.8
20260507001017 63 203 4.0 7.0 0.00 0.00 0.00 78 1014.8
20260507000517 63 135 4.0 10.0 0.00 0.00 0.00 78 1014.8
20260507000017 63 158 3.0 6.0 0.00 0.00 0.00 78 1014.7
20260506235517 63 158 4.0 7.0 0.00 0.00 0.00 78 1014.8
20260506235017 63 158 3.0 12.0 0.00 0.00 0.00 79 1014.7
20260506234517 63 158 4.0 11.0 0.00 0.00 0.00 79 1014.8
20260506234017 63 158 5.0 9.0 0.00 0.00 0.00 79 1014.9
20260506233517 63 158 5.0 11.0 0.00 0.00 0.00 80 1014.9
20260506233017 63 158 6.0 10.0 0.00 0.00 0.00 80 1014.9
20260506232517 63 180 5.0 11.0 0.00 0.00 0.00 80 1014.8
20260506232017 63 180 6.0 14.0 0.00 0.00 0.00 79 1014.8
20260506231517 63 158 6.0 15.0 0.00 0.00 0.00 79 1014.8
20260506231017 63 158 6.0 13.0 0.00 0.00 0.00 78 1014.7
20260506230517 63 158 9.0 16.0 0.00 0.00 0.00 78 1014.6
20260506230017 63 158 9.0 16.0 0.00 0.00 0.00 78 1014.6
20260506225517 63 158 7.0 17.0 0.00 0.00 0.00 78 1014.5
20260506225017 63 158 11.0 16.0 0.00 0.00 0.00 77 1014.4
20260506224517 63 180 7.0 13.0 0.00 0.00 0.00 77 1014.5
20260506224017 64 180 7.0 12.0 0.00 0.00 0.00 75 1014.4
20260506223517 64 203 10.0 14.0 0.00 0.00 0.00 74 1014.3
20260506223017 64 180 6.0 16.0 0.00 0.00 0.00 73 1014.3
20260506222517 64 203 9.0 16.0 0.00 0.00 0.00 70 1014.3
20260506222017 64 203 10.0 20.0 0.00 0.00 0.00 69 1014.4
20260506221517 64 225 9.0 18.0 0.00 0.00 0.00 69 1014.3
20260506221017 64 203 9.0 17.0 0.00 0.00 0.00 67 1014.3
20260506220516 64 203 8.0 15.0 0.00 0.00 0.00 67 1014.3
20260506220037 65 203 11.0 19.0 0.00 0.00 0.00 66 1014.1
20260506215516 64 225 10.0 21.0 0.00 0.00 0.00 66 1014.2
20260506215037 64 180 8.0 14.0 0.00 0.00 0.00 65 1014.4
20260506214516 64 203 7.0 14.0 0.00 0.00 0.00 65 1014.2
20260506214016 64 203 11.0 17.0 0.00 0.00 0.00 65 1013.9
20260506213516 64 225 11.0 21.0 0.00 0.00 0.00 68 1014.0
20260506213036 63 203 9.0 15.0 0.00 0.00 0.00 72 1014.0
20260506212516 63 225 8.0 12.0 0.00 0.00 0.00 75 1013.9
20260506212016 63 203 7.0 13.0 0.00 0.00 0.00 77 1013.7
20260506211516 63 225 7.0 13.0 0.00 0.00 0.00 78 1013.7
20260506211016 62 225 5.0 10.0 0.00 0.00 0.00 79 1013.7
20260506210516 62 203 6.0 11.0 0.00 0.00 0.00 80 1013.9
20260506210016 62 203 6.0 9.0 0.00 0.00 0.00 82 1014.1
20260506205536 62 203 4.0 7.0 0.00 0.00 0.00 83 1014.2
20260506205016 63 203 4.0 11.0 0.00 0.00 0.00 84 1014.4
20260506204516 63 158 3.0 5.0 0.00 0.00 0.00 84 1014.5
20260506204016 63 180 3.0 7.0 0.00 0.00 0.00 84 1014.6
20260506203516 62 158 4.0 7.0 0.00 0.00 0.00 85 1014.7
20260506203036 63 158 2.0 5.0 0.00 0.00 0.00 84 1014.9